Regional Weather Roundup
Issued by NWS

Home | Current Version | Previous Version | Graphics & Text | Print | Product List | Glossary On
Versions: 1 2 3 4 5 6 7 8 9 10 11 12 13 14 15 16 17 18 19 20 21 22 23 24 25 26 27 28 29 30 31 32 33 34 35 36 37 38 39 40 41 42 43 44 45 46 47 48 49 50
000
ASUS43 KOAX 122210
RWRNE

WEATHER ROUNDUP FOR NEBRASKA
NATIONAL WEATHER SERVICE OMAHA NE
400 PM CST TUE DEC 12 2017

NOTES: SATELLITE DATA IS BEING USED TO AUGMENT CLOUD COVER ABOVE
       12000 FEET.
       "FAIR" INDICATES FEW OR NO CLOUDS BELOW 12,000 FEET WITH NO
       SIGNIFICANT WEATHER AND/OR OBSTRUCTIONS TO VISIBILITY.


NEZ001>004-019>022-054>056-122300-
NEBRASKA PANHANDLE

CITY           SKY/WX    TMP DP  RH WIND       PRES   REMARKS
SCOTTSBLUFF    SUNNY     64  16  15 W14       30.07F
ALLIANCE       SUNNY     64  18  17 W13       30.03F
CHADRON        SUNNY     65  17  15 W17G26    30.00F
GORDON         FAIR      56  22  26 W9        30.00F
KIMBALL        SUNNY     63  13  14 NW22G29   30.12F
SIDNEY         SUNNY     64  15  15 NW20      30.10F
$$

NEZ057>060-069>072-079>082-122300-
SOUTHWEST NEBRASKA

CITY           SKY/WX    TMP DP  RH WIND       PRES   REMARKS
NORTH PLATTE   SUNNY     59  21  23 W9        30.04F
IMPERIAL       SUNNY     64  17  16 W7        30.07F
LEXINGTON      SUNNY     57  20  24 SW8       30.05F
MCCOOK         SUNNY     59  21  23 SW7       30.06F
OGALLALA       SUNNY     64  17  16 W13       30.05F
$$

NEZ005>010-023>029-035>040-094-122300-
NORTH CENTRAL NEBRASKA

CITY           SKY/WX    TMP DP  RH WIND       PRES   REMARKS
VALENTINE      CLEAR     61  19  19 W13       29.96F
AINSWORTH      CLEAR     56  23  27 W8        29.97F
BROKEN BOW     CLEAR     54  20  26 SW9       30.02F
O`NEILL        CLEAR     53  21  29 SW9       29.97F
ORD            CLEAR     52  16  24 W8        30.00F
THEDFORD       CLEAR     61  20  20 W10       30.00F
$$

NEZ041-046>049-061>064-073>077-083>087-122300-
SOUTH CENTRAL NEBRASKA

CITY           SKY/WX    TMP DP  RH WIND       PRES   REMARKS
GRAND ISLAND   CLEAR     52  17  25 W9        30.05F
AURORA         CLEAR     50  21  32 SW9       30.05F
HASTINGS       CLEAR     51  15  23 W8        30.05F
HEBRON         CLEAR     51  23  34 W8        30.09F
HOLDREGE       SUNNY     49  24  37 SW7       30.07F
KEARNEY        CLEAR     53  13  20 W9        30.06F
YORK           CLEAR     48  25  40 W9        30.05F
$$

NEZ011>018-030>034-042>045-122300-
NORTHEAST NEBRASKA

CITY           SKY/WX    TMP DP  RH WIND       PRES   REMARKS
NORFOLK        CLEAR     48  25  40 SW8       29.98F
ALBION         CLEAR     51  22  33 W8        30.01F
BLAIR          CLEAR     41  28  60 S10       30.04F
COLUMBUS       CLEAR     47  27  45 SW9       30.03F
FREMONT        CLEAR     46  28  49 SW8       30.05F
TEKAMAH        CLEAR     44  27  51 S10       30.04F
WAYNE          CLEAR     46  23  41 SW9       30.00F
$$

NEZ050>053-065>068-078-088>093-122300-
SOUTHEAST NEBRASKA

CITY           SKY/WX    TMP DP  RH WIND       PRES   REMARKS
LINCOLN        CLEAR     48  27  44 W12       30.08F
OMAHA EPPLEY   PTCLDY    41  25  53 S7        30.08F
BEATRICE       CLEAR     48  28  44 W10       30.08F
FALLS CITY     CLEAR     41  25  53 W7        30.12F
NEBRASKA CITY  CLEAR     42  29  60 SW7       30.09F
PLATTSMOUTH    CLEAR     42  29  58 SW6       30.08F
$$

NEZ044-045-051>053-067-122300-
OMAHA AREA

CITY           SKY/WX    TMP DP  RH WIND       PRES   REMARKS
OMAHA EPPLEY   PTCLDY    41  25  53 S7        30.08F
BLAIR          CLEAR     41  28  60 S10       30.04F
FREMONT        CLEAR     46  28  49 SW8       30.05F
MILLARD        CLEAR     44  29  56 S3        30.08F
OFFUTT AFB     CLEAR     42  26  53 SW5       30.08F
PLATTSMOUTH    CLEAR     42  29  58 SW6       30.08F
WAHOO          FAIR      47  27  45 W8        30.06F
$$




USA.gov is the U.S. government's official web portal to all federal, state and local government web resources and services.